This is the latest recevied weather packets stored in our database for station/object W3EJE-13. If no packets are shown the sender has not sent any weather packets the latest 1 day(s).
| Time | Temp. | Humidity | Pressure | Rain* | Wind** | Luminosity | Snow |
|---|---|---|---|---|---|---|---|
| 1777985185 | 18.89° C | 63% | 1012.8 hPa | 0 mm | 3.58 m/s, 134° | 154 W/m² | - |
| 1777984882 | 18.89° C | 63% | 1012.7 hPa | 0 mm | 2.24 m/s, 35° | 147 W/m² | - |
| 1777984586 | 18.33° C | 65% | 1012.8 hPa | 0 mm | 3.13 m/s, 17° | 106 W/m² | - |
| 1777984275 | 18.33° C | 65% | 1013 hPa | 0 mm | 3.13 m/s, 290° | 65 W/m² | - |
| 1777983971 | 18.33° C | 64% | 1012.8 hPa | 0 mm | 3.58 m/s, 311° | 47 W/m² | - |
| 1777983669 | 18.33° C | 64% | 1013.2 hPa | 0 mm | 4.47 m/s, 267° | 44 W/m² | - |
| 1777983365 | 18.33° C | 64% | 1012.8 hPa | 0 mm | 6.26 m/s, 47° | 44 W/m² | - |
| 1777983062 | 17.78° C | 65% | 1013 hPa | 0 mm | 3.13 m/s, 311° | 41 W/m² | - |
| 1777982758 | 17.78° C | 65% | 1013.1 hPa | 0 mm | 4.02 m/s, 319° | 46 W/m² | - |
| 1777982454 | 17.78° C | 64% | 1013.1 hPa | 0 mm | 2.24 m/s, 272° | 49 W/m² | - |
| 1777982148 | 17.78° C | 65% | 1012.9 hPa | 0 mm | 2.24 m/s, 290° | 48 W/m² | - |
| 1777981846 | 17.78° C | 65% | 1012.9 hPa | 0 mm | 3.58 m/s, 290° | 44 W/m² | - |
| 1777981543 | 17.78° C | 65% | 1013 hPa | 0 mm | 4.92 m/s, 17° | 41 W/m² | - |
| 1777981239 | 17.78° C | 66% | 1012.9 hPa | 0 mm | 1.79 m/s, 72° | 39 W/m² | - |
| 1777980936 | 17.22° C | 67% | 1013.1 hPa | 0 mm | 2.24 m/s, 2° | 37 W/m² | - |
| 1777980632 | 17.22° C | 67% | 1013.2 hPa | 0 mm | 2.68 m/s, 307° | 37 W/m² | - |
| 1777980328 | 17.22° C | 68% | 1013 hPa | 0 mm | 1.79 m/s, 330° | 32 W/m² | - |
| 1777980026 | 17.22° C | 66% | 1013 hPa | 0 mm | 2.24 m/s, 351° | 31 W/m² | - |
| 1777979720 | 17.22° C | 66% | 1013 hPa | 0 mm | 2.24 m/s, 299° | 29 W/m² | - |
| 1777979417 | 17.22° C | 66% | 1012.8 hPa | 0 mm | 2.24 m/s, 267° | 26 W/m² | - |
| 1777979114 | 17.22° C | 67% | 1012.8 hPa | 0 mm | 1.34 m/s, 295° | 19 W/m² | - |
| 1777978810 | 17.22° C | 66% | 1012.9 hPa | 0 mm | 3.58 m/s, 258° | 15 W/m² | - |
| 1777978507 | 17.22° C | 67% | 1012.7 hPa | 0 mm | 2.24 m/s, 21° | 10 W/m² | - |
| 1777978203 | 17.22° C | 68% | 1012.7 hPa | 0 mm | 2.68 m/s, 319° | 9 W/m² | - |
| 1777977900 | 16.67° C | 69% | 1012.7 hPa | 0 mm | 2.24 m/s, 281° | 12 W/m² | - |
* Rain latest hour (hover to see other rain measurements)
** Current wind speed in m/s (hover to see current wind gust speed)